Location: Unspecified
(58.9933°N, 5.6375°E)
Time: 16:58:34
(UTC+01:00)

Cosmos 2058 - Pass Details

Date: 27 January 2018
Orbit: 563 x 585 km, 82.5° (Epoch: 24 February)

Event Time Altitude Azimuth Distance (km) Brightness Sun altitude
Rises 18:25:57 0° 173° (S) 2,800 6.5 -12.6°
Reaches altitude 10° 18:28:11 10° 168° (SSE) 1,906 5.6 -12.9°
Maximum altitude 18:32:14 46° 95° (E) 793 3.2 -13.4°
Drops below altitude 10° 18:36:18 10° 22° (NNE) 1,924 5.3 -13.9°
Enters shadow 18:37:28 - 19° (NNE) 2,388 5.8 -14.0°
